Starlink 31822

operational
NORAD ID: 59752 Int'l Des: 2024-090 Owner: SPXS Country: US Constellation: starlink
LEOCIRCULAR

Über Starlink 31822

Beschreibung wird geladen...

Live-Position

3D-Globus wird geladen...

Nächste Überflüge

Höhenverlauf

Altitude vs Time

uPlot chart will show altitude changes over time

Zweizeiliger Elementsatz

1 59752U 24090Y 25304.76132763 -.00000070 00000-0 69842-5 0 9994
2 59752 42.9994 191.4884 0001310 252.9585 107.1123 15.27572909 83714
Epoch: 31. Okt. 2025 • Age: 19 hours

Aktueller Status

Höhe 487.0 km
Geschwindigkeit 7.63 km/s
Subsatellitenpunkt 42.99°N, 39.36°E
Startdatum 13. Mai 2024
Alter 1.4 years
Typ internet

Technische Details

Klassifizierung Payload
Masse 730.00 kg
Trockenmasse 700.00 kg
Gesamtmasse 730.00 kg
Länge 0.30 m
Durchmesser 4.10 m
Spannweite 29.00 m
Form Box + pan
Hersteller SPXS
Bus-Typ Starlink V2M
Phasenstatus In Orbit
Besitzer/Staat SPXS/US

Große Konstellationen

Loading constellations...